Overview Statistics Trail Chart Weather Telemetry Raw packets
 

This is the latest recevied weather packets stored in our database for station/object S56VIL-11. If no packets are shown the sender has not sent any weather packets the latest 10 day(s).

<< 6 7 8 9 10 11 12 >>
Time Temp. Humidity Pressure Rain* Wind** Luminosity Snow
1788450035 26.11° C 54% 1032.7 hPa - - - -
1788449135 26.11° C 53% 1032.5 hPa - - - -
1788448235 27.22° C 53% 1032.5 hPa - - - -
1788447335 27.78° C 54% 1032.5 hPa - - - -
1788446442 28.89° C 54% 1032.6 hPa - - - -
1788445535 29.44° C 53% 1032.7 hPa - - - -
1788444635 31.67° C 52% 1032.6 hPa - - - -
1788443735 30° C 52% 1032.9 hPa - - - -
1788442835 28.89° C 53% 1032.9 hPa - - - -
1788441935 27.78° C 53% 1033 hPa - - - -
1788441056 26.11° C 55% 1033 hPa - - - -
1788440135 26.67° C 54% 1033 hPa - - - -
1788439235 27.22° C 54% 1033 hPa - - - -
1788438341 27.22° C 54% 1033.1 hPa - - - -
1788437435 26.11° C 55% 1033.2 hPa - - - -
1788436535 26.11° C 56% 1033.4 hPa - - - -
1788435635 26.67° C 55% 1033.5 hPa - - - -
1788434744 26.11° C 56% 1033.6 hPa - - - -
1788433835 26.11° C 56% 1033.6 hPa - - - -
1788432943 27.22° C 56% 1033.7 hPa - - - -
1788432035 28.89° C 56% 1033.8 hPa - - - -
1788431142 31.11° C 55% 1033.9 hPa - - - -
1788430261 31.11° C 55% 1034 hPa - - - -
1788429343 31.11° C 55% 1034.2 hPa - - - -
1788428434 31.11° C 55% 1034.4 hPa - - - -

* Rain since midnight (hover to see other rain measurements)
** Current wind speed in m/s (hover to see current wind gust speed)